Glasgow, United Kingdom

1:23 PM GMT on January 17, 2018 (GMT +0000)
Glasgow

Weather History for EGPF - May, 2012

Change the Weather History Date:

Friday, May 25, 2012

  Actual Average Record
Temperature  
Mean Temperature 65 °F -  
Max Temperature 75 °F 60 °F 78 °F (2017)
Min Temperature 55 °F 46 °F 33 °F (2013)
Growing Degree Days 15 (Base 50)    
Moisture  
Dew Point 55 °F    
Average Humidity 74    
Maximum Humidity 94    
Minimum Humidity 53    
Precipitation  
Precipitation 0.00 in - - ()
Sea Level Pressure  
Sea Level Pressure 30.37 in    
Wind  
Wind Speed 10 mph ()    
Max Wind Speed 20 mph    
Max Gust Speed -    
Visibility 4.3 miles    
Events      
Averages and records for this station are not official NWS values.
T = Trace of Precipitation, MM = Missing Value Source: Averaged Metar Reports

Daily Weather History Graph

Daily Weather History Graph

Search for Another Location

Airport or City:

Trip Planner

Search our weather history database for the weather conditions in past years. The results will help you decide how hot, cold, wet, or windy it might be!

Date:

Astronomy

May. 25, 2012 Rise Set
Actual Time 4:48 AM BST 9:41 PM BST
Civil Twilight 3:54 AM BST 10:36 PM BST
Nautical Twilight 2:17 AM BST 12:16 AM BST
Astronomical Twilight Sun does not rise Sun does not rise
Moon 8:47 AM BST (5/25) 12:20 AM BST (5/25)
Length of Visible Light 18h 41m
Length of Day
16h 52m
Waxing Crescent, 18% of the Moon is Illuminated
May 25
Waxing Crescent
May 28
First Quarter
Jun 4
Full
Jun 11
Last Quarter
Jun 19
New

Hourly Weather History & Observations

Time (BST) Temp. Dew Point Humidity Pressure Visibility Wind Dir Wind Speed Gust Speed Precip Events Conditions
12:20 AM 60.8 °F 57.2 °F 88% 30.39 in - ENE 9.2 mph - N/A   Clear
12:50 AM 60.8 °F 57.2 °F 88% 30.39 in - ENE 6.9 mph - N/A   Clear
1:20 AM 60.8 °F 57.2 °F 88% 30.39 in - ENE 5.8 mph - N/A   Clear
1:50 AM 59.0 °F 55.4 °F 88% 30.39 in 5.6 mi ENE 5.8 mph - N/A   Unknown
2:20 AM 57.2 °F 53.6 °F 88% 30.39 in 5.6 mi NE 6.9 mph - N/A   Unknown
2:50 AM 55.4 °F 53.6 °F 94% 30.39 in 5.0 mi NE 8.1 mph - N/A   Unknown
3:20 AM 57.2 °F 53.6 °F 88% 30.39 in 3.1 mi ENE 10.4 mph - N/A   Haze
3:50 AM 57.2 °F 55.4 °F 94% 30.39 in 2.8 mi ENE 8.1 mph - N/A   Haze
4:20 AM 57.2 °F 55.4 °F 94% 30.39 in 1.9 mi East 9.2 mph - N/A   Haze
4:50 AM 57.2 °F 55.4 °F 94% 30.39 in - East 9.2 mph - N/A   Haze
5:20 AM 57.2 °F 55.4 °F 94% 30.39 in - East 9.2 mph - N/A   Haze
5:50 AM 57.2 °F 55.4 °F 94% 30.39 in - East 10.4 mph - N/A   Haze
6:20 AM 57.2 °F 55.4 °F 94% 30.39 in 3.1 mi East 12.7 mph - N/A   Haze
6:50 AM 57.2 °F 55.4 °F 94% 30.42 in 3.1 mi East 12.7 mph - N/A   Haze
7:20 AM 57.2 °F 55.4 °F 94% 30.42 in 4.3 mi East 12.7 mph - N/A   Overcast
7:50 AM 57.2 °F 55.4 °F 94% 30.42 in 4.3 mi East 10.4 mph - N/A   Overcast
8:20 AM 57.2 °F 55.4 °F 94% 30.42 in 4.3 mi East 8.1 mph - N/A   Overcast
8:50 AM 59.0 °F 55.4 °F 88% 30.42 in 4.3 mi East 13.8 mph - N/A   Overcast
9:20 AM 60.8 °F 55.4 °F 82% 30.42 in 4.3 mi East 12.7 mph - N/A   Mostly Cloudy
9:50 AM 60.8 °F 55.4 °F 82% 30.42 in 5.0 mi East 10.4 mph - N/A   Scattered Clouds
10:20 AM 62.6 °F 55.4 °F 77% 30.42 in 5.6 mi East 10.4 mph - N/A   Scattered Clouds
10:50 AM 64.4 °F 55.4 °F 73% 30.39 in 6.2 mi East 12.7 mph - N/A   Partly Cloudy
11:20 AM 64.4 °F 55.4 °F 73% 30.39 in - East 13.8 mph - N/A   Clear
11:50 AM 66.2 °F 55.4 °F 68% 30.39 in - East 15.0 mph - N/A   Clear
12:20 PM 68.0 °F 57.2 °F 68% 30.39 in - ENE 12.7 mph - N/A   Clear
12:50 PM 69.8 °F 55.4 °F 60% 30.39 in - ENE 13.8 mph - N/A   Clear
1:20 PM 71.6 °F 57.2 °F 60% 30.36 in - ENE 16.1 mph - N/A   Clear
1:50 PM 73.4 °F 57.2 °F 57% 30.36 in - East 15.0 mph - N/A   Clear
2:20 PM 73.4 °F 57.2 °F 57% 30.36 in - NE 16.1 mph - N/A   Clear
2:50 PM 75.2 °F 57.2 °F 53% 30.33 in - ENE 16.1 mph - N/A   Clear
3:20 PM 75.2 °F 57.2 °F 53% 30.33 in - ENE 17.3 mph - N/A   Clear
3:50 PM 75.2 °F 57.2 °F 53% 30.33 in - ENE 16.1 mph - N/A   Clear
4:20 PM 75.2 °F 57.2 °F 53% 30.33 in - ENE 17.3 mph - N/A   Clear
4:50 PM 75.2 °F 57.2 °F 53% 30.33 in - ENE 17.3 mph - N/A   Clear
5:20 PM 73.4 °F 57.2 °F 57% 30.33 in - ENE 17.3 mph - N/A   Clear
5:50 PM 75.2 °F 57.2 °F 53% 30.33 in - ENE 16.1 mph - N/A   Clear
6:20 PM 73.4 °F 57.2 °F 57% 30.30 in - ENE 18.4 mph - N/A   Clear
6:50 PM 71.6 °F 53.6 °F 53% 30.30 in - ENE 19.6 mph - N/A   Clear
7:20 PM 69.8 °F 51.8 °F 53% 30.30 in - East 17.3 mph - N/A   Clear
7:50 PM 68.0 °F 53.6 °F 60% 30.33 in - ENE 16.1 mph - N/A   Clear
8:20 PM 66.2 °F 51.8 °F 60% 30.33 in - ENE 16.1 mph - N/A   Clear
8:50 PM 66.2 °F 51.8 °F 60% 30.33 in - ENE 15.0 mph - N/A   Clear
9:20 PM 64.4 °F 51.8 °F 64% 30.33 in - ENE 16.1 mph - N/A   Clear
9:50 PM 62.6 °F 51.8 °F 68% 30.33 in - ENE 12.7 mph - N/A   Clear
10:20 PM 60.8 °F 50.0 °F 68% 30.36 in - ENE 12.7 mph - N/A   Clear
10:50 PM 59.0 °F 50.0 °F 72% 30.36 in - ENE 12.7 mph - N/A   Clear
11:20 PM 59.0 °F 50.0 °F 72% 30.36 in - ENE 10.4 mph - N/A   Clear
11:50 PM 59.0 °F 50.0 °F 72% 30.36 in - ENE 12.7 mph - N/A   Clear